Moosic, PA

3:24 AM EDT on July 30, 2016 (GMT -0400)
Wilkes-Barre-Scranton International

Weather History for KAVP - February, 2013

Change the Weather History Date:

Saturday, February 2, 2013

  Actual Average Record
Temperature  
Mean Temperature 16 °F 27 °F  
Max Temperature 20 °F 34 °F 55 °F (1983)
Min Temperature 12 °F 19 °F -11 °F (1961)
Degree Days  
Heating Degree Days 49 38  
Month to date heating degree days 92 77  
Since 1 July heating degree days 3309 3668  
Cooling Degree Days 0 0  
Month to date cooling degree days 0 0  
Year to date cooling degree days 0 0  
Moisture  
Dew Point 9 °F    
Average Humidity 69    
Maximum Humidity 84    
Minimum Humidity 54    
Precipitation  
Precipitation 0.01 in 0.08 in 1.74 in (1981)
Month to date precipitation 0.01 0.16  
Year to date precipitation 2.03 2.53  
Sea Level Pressure  
Sea Level Pressure 30.12 in    
Wind  
Wind Speed 7 mph (SW)    
Max Wind Speed 16 mph    
Max Gust Speed 24 mph    
Visibility 7 miles    
Events Snow    
T = Trace of Precipitation, MM = Missing Value Source: NWS Daily Summary

Daily Weather History Graph

Daily Weather History Graph

Search for Another Location

Airport or City:

Trip Planner

Search our weather history database for the weather conditions in past years. The results will help you decide how hot, cold, wet, or windy it might be!

Date:

Astronomy

Feb. 02, 2013 Rise Set
Actual Time 7:12 AM EST 5:20 PM EST
Civil Twilight 6:43 AM EST 5:50 PM EST
Nautical Twilight 6:10 AM EST 6:23 PM EST
Astronomical Twilight 5:38 AM EST 6:55 PM EST
Moon No Moon Rise 10:16 AM EST (2/2)
Length of Visible Light 11h 06m
Length of Day
10h 07m
Waning Gibbous, 60% of the Moon is Illuminated
Feb 2
Waning Gibbous
Feb 3
Last Quarter
Feb 10
New
Feb 17
First Quarter
Feb 25
Full

Hourly Weather History & Observations

Time (EST) Temp. Windchill Dew Point Humidity Pressure Visibility Wind Dir Wind Speed Gust Speed Precip Events Conditions
12:54 AM 16.0 °F 4.4 °F 6.1 °F 65% 30.23 in 10.0 mi WSW 9.2 mph - N/A   Clear
1:54 AM 15.1 °F 6.4 °F 5.0 °F 64% 30.24 in 10.0 mi SW 5.8 mph - N/A   Clear
2:54 AM 14.0 °F 2.9 °F 3.9 °F 64% 30.25 in 10.0 mi SW 8.1 mph - N/A   Clear
3:54 AM 12.9 °F 2.6 °F 3.9 °F 67% 30.25 in 10.0 mi SSW 6.9 mph - N/A   Clear
4:54 AM 12.9 °F 3.8 °F 3.0 °F 65% 30.25 in 10.0 mi SW 5.8 mph - N/A   Clear
5:54 AM 12.9 °F 2.6 °F 3.9 °F 67% 30.25 in 10.0 mi SW 6.9 mph - N/A   Mostly Cloudy
6:16 AM 12.2 °F 2.9 °F 5.0 °F 73% 30.20 in 10.0 mi Variable 5.8 mph - N/A   Scattered Clouds
6:54 AM 12.2 °F 2.9 °F 3.2 °F 67% 30.20 in 10.0 mi SW 5.8 mph - N/A   Clear
7:54 AM 12.0 °F 2.7 °F 3.0 °F 67% 30.25 in 10.0 mi Variable 5.8 mph - N/A   Clear
8:54 AM 14.0 °F 2.9 °F 3.0 °F 62% 30.24 in 10.0 mi SSW 8.1 mph 19.6 mph N/A   Clear
9:54 AM 16.0 °F 4.4 °F 5.0 °F 62% 30.22 in 10.0 mi SSW 9.2 mph 17.3 mph N/A   Partly Cloudy
10:54 AM 16.0 °F 4.4 °F 3.9 °F 59% 30.20 in 10.0 mi SW 9.2 mph 18.4 mph N/A   Overcast
11:54 AM 17.1 °F 5.8 °F 3.9 °F 56% 30.17 in 10.0 mi SW 9.2 mph - N/A   Overcast
12:54 PM 18.0 °F 5.4 °F 3.9 °F 54% 30.14 in 7.0 mi WSW 11.5 mph 20.7 mph N/A   Overcast
1:54 PM 19.0 °F 8.2 °F 6.1 °F 57% 30.10 in 10.0 mi WSW 9.2 mph - 0.00 in   Overcast
2:54 PM 19.0 °F 13.9 °F 7.0 °F 59% 30.08 in 10.0 mi Variable 3.5 mph - N/A   Overcast
3:54 PM 19.9 °F 9.3 °F 8.1 °F 60% 30.08 in 9.0 mi SSW 9.2 mph - N/A   Overcast
4:16 PM 19.4 °F 10.4 °F 10.4 °F 68% 30.03 in 7.0 mi SSW 6.9 mph - N/A   Overcast
4:50 PM 19.4 °F 9.5 °F 8.6 °F 63% 30.02 in 10.0 mi SSW 8.1 mph - N/A   Overcast
4:54 PM 19.0 °F 10.0 °F 9.0 °F 65% 30.06 in 10.0 mi Variable 6.9 mph - N/A   Overcast
5:54 PM 19.0 °F 11.1 °F 9.0 °F 65% 30.05 in 10.0 mi SSW 5.8 mph - N/A   Overcast
6:54 PM 18.0 °F 8.7 °F 12.9 °F 81% 30.06 in 4.0 mi SW 6.9 mph - N/A   Haze
7:11 PM 17.6 °F 9.3 °F 14.0 °F 86% 30.01 in 2.0 mi SW 5.8 mph - 0.00 in Snow Light Snow
7:20 PM 17.6 °F 9.3 °F 14.0 °F 86% 30.01 in 1.8 mi SW 5.8 mph - 0.00 in Snow Light Snow
7:26 PM 17.6 °F 8.2 °F 14.0 °F 86% 30.01 in 2.0 mi SW 6.9 mph - 0.00 in Snow Light Snow
7:40 PM 19.4 °F 10.4 °F 15.8 °F 86% 30.01 in 4.0 mi SW 6.9 mph - 0.01 in Snow Light Snow
7:54 PM 19.0 °F 11.1 °F 14.0 °F 81% 30.06 in 4.0 mi SW 5.8 mph - 0.01 in Snow Light Snow
8:17 PM 19.4 °F 11.5 °F 15.8 °F 86% 30.01 in 2.5 mi WSW 5.8 mph - 0.00 in Snow Light Snow
8:54 PM 19.0 °F 13.9 °F 16.0 °F 88% 30.04 in 3.0 mi WSW 3.5 mph - 0.00 in Snow Light Snow
9:23 PM 19.4 °F - 15.8 °F 86% 30.00 in 2.5 mi Calm Calm - 0.00 in Snow Light Snow
9:54 PM 19.0 °F 13.9 °F 15.1 °F 85% 30.04 in 5.0 mi West 3.5 mph - 0.00 in   Overcast
10:49 PM 19.4 °F - 15.8 °F 86% 29.98 in 2.5 mi Calm Calm - 0.00 in Snow Light Snow
10:54 PM 19.0 °F - 16.0 °F 88% 30.02 in 3.0 mi Calm Calm - 0.00 in Snow Light Snow
11:54 PM 19.0 °F - 16.0 °F 88% 30.00 in 6.0 mi Calm Calm - 0.00 in   Overcast